Temperature
21 21 21 22 27 29 29 29 29 29 28 28 27 28 28 28 27 26 22 21 21 21 20 21 20 20 20 20 19 19 19 19 19 19 19 19 19 19 19 19 19 18 18 18 18 18 18 18 18
21 21 22 25 29 29 29 29 28 28 27 27 27 27 27 26 24 23 21 20 20 20 20 20 20 20 20 20 19 19 19 19 19 19 19 19 19 19 19 18 18 18 18 18 18 18 18 18 18
21 21 24 28 29 29 28 29 28 28 27 27 27 26 26 25 23 22 21 20 20 20 19 20 20 20 20 19 19 19 19 19 19 19 19 19 18 18 18 18 18 18 18 18 18 18 18 18 18
21 23 26 29 28 29 29 28 28 28 27 27 27 26 24 22 22 21 20 20 20 19 19 19 20 20 19 19 19 19 19 19 19 19 18 18 18 18 18 18 18 18 18 18 18 18 18 18 17
22 26 28 28 28 29 29 28 28 28 28 27 26 26 24 21 21 20 20 20 19 19 19 19 19 19 19 19 19 19 19 19 19 18 18 18 18 18 18 18 18 18 18 18 17 17 17 17 17
25 28 29 28 28 29 29 28 28 28 27 26 26 26 23 21 20 20 20 19 19 19 19 18 19 19 19 19 19 18 18 18 18 18 18 18 18 18 18 17 17 17 17 17 17 17 17 17 17
27 29 28 28 28 28 28 27 27 28 27 26 25 26 23 21 20 20 19 19 19 19 19 18 18 18 18 18 18 18 18 18 18 18 18 18 18 17 17 17 17 17 17 17 17 17 17 17 17
26 29 29 29 28 28 28 27 26 26 26 24 24 25 23 20 20 19 19 19 19 19 18 18 18 18 18 18 18 18 18 18 18 18 17 17 17 17 17 17 17 17 17 17 17 17 17 17 17
25 29 28 28 28 28 28 27 26 25 25 24 23 23 21 20 19 19 19 19 19 18 18 18 18 18 17 17 17 17 17 17 17 17 17 17 16 16 16 16 17 17 17 17 17 17 17 16 16
27 29 28 28 28 28 27 27 25 25 25 24 23 21 20 20 19 19 19 19 19 18 18 18 18 18 17 17 17 17 17 17 17 16 16 16 16 16 16 16 16 17 17 17 17 17 16 16 16
28 28 28 28 27 26 26 26 25 25 25 24 23 21 20 20 19 19 19 19 18 18 18 18 17 17 17 17 17 17 17 16 16 16 16 16 16 16 16 16 16 16 16 16 16 16 16 16 16
28 27 27 27 26 26 26 25 25 24 24 23 22 21 20 20 20 19 19 19 18 18 18 17 17 17 17 17 17 17 17 16 16 16 16 16 16 16 16 16 16 16 16 16 16 16 16 16 16
27 27 26 25 25 25 25 25 25 23 22 22 21 21 20 20 19 19 18 18 18 18 17 18 18 17 17 17 17 16 16 16 16 16 16 16 16 16 16 16 16 16 16 16 16 16 16 16 16
27 26 26 25 25 25 26 25 24 23 22 21 21 20 20 19 19 19 18 18 18 17 17 17 17 17 17 17 17 16 16 16 16 16 16 16 16 15 15 15 15 15 15 15 15 15 15 15 15
26 26 26 26 26 26 26 25 24 22 22 22 21 20 19 19 19 18 18 17 17 17 17 17 17 17 17 16 16 16 16 16 16 16 16 16 15 15 15 15 15 15 15 15 15 15 15 15 15
27 27 27 26 26 25 26 25 24 22 22 22 21 20 19 18 18 18 18 17 17 17 17 17 17 16 16 16 16 16 16 16 16 15 15 15 15 15 15 15 15 15 15 15 15 15 15 15 15
28 27 27 27 27 26 26 25 24 22 22 22 21 20 19 18 18 18 17 17 17 17 17 17 17 16 16 16 16 16 16 16 15 15 15 15 15 15 15 15 14 14 14 14 14 14 14 14 14
27 28 27 27 27 26 26 25 24 23 22 22 22 20 20 19 18 18 17 17 17 17 17 17 17 17 16 16 16 15 15 15 15 15 15 15 15 15 14 14 14 14 14 14 14 14 14 14 14
28 27 27 26 26 26 25 25 24 23 23 22 22 21 20 19 18 17 17 17 17 17 17 17 16 16 16 16 16 15 15 15 15 15 15 15 15 14 14 14 14 14 14 14 14 14 14 14 14
27 27 27 26 25 25 25 24 24 23 23 22 21 21 20 19 18 17 17 17 17 16 16 16 16 16 16 16 15 15 15 15 15 14 14 14 14 14 14 14 14 14 14 13 13 13 13 14 14
27 27 27 26 25 25 25 24 24 23 22 22 21 21 20 19 18 17 17 16 16 16 16 16 16 15 15 15 15 15 15 15 14 14 14 14 14 14 14 14 14 14 13 13 13 13 13 13 13
27 27 26 26 25 26 25 25 25 24 23 22 22 21 20 19 18 18 17 16 16 16 16 15 15 15 15 15 15 14 14 14 14 14 14 13 13 13 13 13 13 13 13 13 13 13 13 13 13
26 26 26 26 26 26 25 25 25 24 23 23 22 21 20 19 18 17 17 16 16 15 15 15 15 15 15 15 14 14 14 14 14 14 13 13 13 13 13 13 13 13 13 13 13 13 13 13 13
26 26 26 26 26 25 25 25 25 24 23 23 22 21 19 19 18 17 17 16 16 15 15 15 15 15 14 14 14 14 14 14 13 13 13 13 13 13 13 13 13 13 13 12 12 12 12 12 12
26 26 26 26 26 25 25 25 24 23 23 22 21 20 19 18 18 17 16 16 15 15 15 14 14 14 14 14 14 14 13 13 13 13 13 13 13 13 13 13 12 12 12 12 12 12 12 12 12
26 26 25 25 25 26 24 24 24 23 22 21 20 20 19 18 17 17 16 16 15 15 14 14 14 14 14 14 14 13 13 13 13 13 13 13 13 13 13 12 12 12 12 12 12 12 12 12 12
26 26 26 26 25 25 25 24 23 23 22 21 20 19 19 18 17 17 16 15 15 15 14 14 14 13 13 13 13 13 13 13 13 13 13 13 13 12 12 12 12 12 12 12 12 12 11 11 12
26 26 25 25 24 24 25 24 24 22 22 21 20 19 19 18 17 16 16 15 15 14 14 14 14 14 13 13 13 13 13 13 13 12 12 12 12 12 12 12 12 11 11 11 11 11 11 11 11
25 25 25 25 25 24 24 24 24 22 22 21 21 19 18 18 17 16 16 15 15 14 14 14 14 14 13 13 13 13 13 13 12 12 12 12 12 12 12 12 11 11 11 11 11 11 11 11 11
25 25 25 24 24 24 24 24 22 22 21 21 20 19 18 17 17 16 16 15 15 14 14 14 14 13 13 13 13 13 13 12 12 12 12 12 12 12 11 11 11 11 11 11 11 11 11 11 11
Wind_Speed
8 7 5 4 5 3 3 3 3 3 3 4 4 2 3 5 5 4 4 5 6 9 13 15 13 12 12 12 12 12 11 12 12 13 13 13 13 13 13 12 12 11 11 11 11 11 11 10 10
6 5 5 5 4 3 4 3 4 5 4 2 2 1 2 4 5 4 4 5 7 10 12 14 14 12 11 12 12 12 12 12 12 12 12 12 12 12 12 12 11 11 10 10 11 10 10 10 10
6 6 5 3 2 0 3 4 4 4 3 1 1 2 3 4 3 3 4 5 7 10 11 14 14 12 11 11 12 12 11 11 12 12 12 12 11 11 11 11 11 10 10 10 10 10 10 10 10
4 5 4 3 3 3 3 3 3 2 2 2 1 2 3 5 3 3 4 6 7 9 11 13 13 12 11 11 11 11 11 10 11 11 11 11 11 11 11 10 10 10 10 10 10 10 9 10 10
5 5 5 4 3 3 2 2 2 2 1 2 1 2 4 5 5 5 5 5 6 8 9 12 11 10 10 10 10 9 9 9 10 10 10 9 9 9 10 9 10 9 9 10 9 9 9 9 9
5 4 4 3 4 2 2 2 2 2 1 2 1 2 4 5 4 4 4 4 5 6 8 10 11 10 9 9 9 9 8 8 8 8 8 8 8 8 8 8 8 8 9 9 9 9 9 9 9
4 3 2 2 2 2 3 2 3 2 1 3 2 1 3 5 5 4 4 4 5 5 6 7 9 9 9 8 8 8 8 8 7 7 7 7 7 7 7 7 8 8 8 8 9 9 10 9 10
4 3 2 1 1 2 3 2 3 3 3 4 3 2 2 3 4 4 5 5 4 4 5 5 6 7 8 9 8 7 7 7 6 7 7 7 8 8 8 8 7 8 8 8 9 10 10 10 11
5 5 2 1 1 2 2 1 3 2 2 3 3 4 4 4 5 5 5 5 4 3 3 4 5 5 5 6 8 9 8 8 8 8 8 8 8 8 8 7 6 7 8 9 9 10 10 11 12
4 3 1 2 2 3 2 2 2 1 2 2 3 4 3 4 5 5 4 4 4 3 2 3 4 4 5 4 6 6 7 7 7 5 6 6 5 5 5 5 6 6 7 9 10 11 12 13 10
2 1 2 2 2 2 1 3 2 1 1 3 1 1 3 4 4 3 3 3 2 3 2 1 3 3 3 3 3 3 4 4 5 5 5 4 5 5 5 4 6 7 8 8 9 11 10 8 6
2 0 1 1 2 0 1 2 3 3 3 4 3 3 4 4 4 3 2 2 2 1 1 1 1 3 3 2 2 2 2 3 3 4 5 4 3 3 3 3 4 5 5 4 5 6 7 6 7
4 2 2 1 1 1 2 2 3 4 3 4 4 5 4 4 3 2 2 2 1 1 1 1 1 2 2 2 2 2 2 2 3 3 4 3 3 4 3 3 3 4 4 5 5 5 6 6 7
2 2 2 2 2 2 3 3 2 2 3 4 4 5 4 4 3 3 2 1 1 2 2 1 2 2 2 2 2 2 3 2 3 3 3 4 4 4 4 4 4 4 4 4 4 5 5 5 5
4 4 4 3 3 2 3 2 2 2 3 4 5 5 5 4 3 2 1 0 1 2 2 2 2 3 3 3 4 3 3 3 3 2 3 5 6 5 4 4 4 4 4 4 5 5 5 5 6
7 7 6 3 3 3 5 1 4 3 3 4 4 5 5 4 3 2 1 1 1 2 2 2 2 3 4 3 4 3 3 3 3 3 3 5 5 5 5 4 4 3 4 4 4 5 5 5 6
8 6 4 4 3 3 4 1 4 3 3 4 4 4 3 3 3 2 2 2 2 2 2 3 3 3 3 3 3 3 2 3 3 3 3 4 5 5 5 4 4 5 4 4 5 4 5 5 5
5 5 5 3 2 4 4 2 3 3 2 2 2 2 2 3 3 3 3 3 2 2 2 2 2 2 2 2 2 2 3 3 3 2 2 4 4 5 6 4 4 5 4 4 4 5 5 5 5
5 6 4 2 1 3 4 3 2 2 2 1 1 1 2 2 3 3 3 3 3 3 2 2 1 1 1 2 2 3 3 3 3 3 3 3 4 5 5 5 5 5 5 5 6 5 6 5 4
7 7 5 3 3 3 3 3 2 3 2 1 1 1 1 2 2 3 4 4 3 3 2 2 1 1 2 2 2 3 3 3 3 3 3 4 4 5 5 6 6 6 5 6 5 5 5 5 4
7 7 5 4 4 5 5 5 5 4 3 1 0 1 1 2 2 2 3 4 3 3 3 3 2 2 2 2 2 2 3 3 3 3 3 4 4 5 5 6 6 5 6 5 5 6 7 6 5
6 4 5 7 7 5 6 5 4 5 3 1 1 1 2 2 2 3 3 4 4 3 3 2 2 2 2 3 3 4 4 4 4 3 3 3 4 4 5 6 5 6 5 5 6 6 6 6 6
3 3 6 8 8 7 6 6 3 4 2 1 1 2 2 2 2 3 4 4 4 3 3 2 2 2 2 3 3 4 4 3 3 3 3 3 3 3 4 4 4 5 5 5 5 5 6 6 6
3 4 6 8 8 7 4 5 2 1 1 2 1 2 2 2 2 2 3 4 4 4 3 3 2 2 3 3 3 3 3 3 3 3 3 3 2 2 3 4 4 5 5 5 5 5 6 6 6
6 6 5 6 6 3 2 5 0 2 1 2 2 2 2 2 2 2 3 4 4 4 4 3 2 2 2 3 3 2 2 2 2 3 2 3 2 2 2 3 4 4 4 5 5 5 5 6 7
6 7 6 5 4 2 4 3 2 4 2 2 2 2 2 2 2 3 3 4 4 4 4 3 2 3 3 3 3 2 2 2 2 2 3 2 2 2 2 3 3 4 4 4 5 5 5 5 6
4 5 5 6 6 6 3 2 3 3 0 1 2 2 2 2 2 3 3 4 4 4 3 3 3 2 3 3 2 2 1 2 2 2 2 2 2 2 2 2 3 3 3 4 5 5 5 5 6
3 3 4 5 5 5 4 4 1 1 1 1 2 2 2 2 2 3 3 3 3 3 3 3 3 2 2 2 2 2 1 1 2 2 2 2 2 2 2 2 2 3 3 4 5 5 5 6 6
4 4 4 5 5 6 5 1 4 2 1 2 2 2 2 2 2 2 2 3 3 3 3 3 3 2 2 2 2 2 1 1 2 2 2 2 1 1 1 2 2 3 3 4 4 5 5 5 5
4 4 5 6 5 6 6 1 5 3 2 2 2 2 2 1 2 2 2 3 3 3 3 3 4 3 3 3 2 2 2 2 2 2 2 2 2 2 2 2 2 3 3 3 4 5 5 6 6
Wind_Direction
199 200 219 234 235 199 113 80 51 36 34 22 8 359 17 13 356 26 62 102 128 140 142 149 149 152 153 154 156 154 154 155 156 158 159 160 161 161 160 159 161 164 165 166 167 167 167 167 166
194 202 227 239 248 173 114 79 56 33 28 4 29 20 28 43 33 52 83 104 137 141 147 152 148 153 156 156 158 157 156 158 158 160 161 163 163 164 164 165 165 168 171 171 172 174 174 174 173
201 226 248 240 240 81 93 59 41 44 47 360 35 38 28 30 41 50 80 127 143 144 149 145 152 156 158 157 157 159 158 160 161 163 165 166 167 168 170 172 172 172 177 178 178 180 180 180 179
214 218 231 229 148 78 50 40 16 32 55 33 48 85 80 43 29 57 106 136 142 147 151 146 156 159 157 156 155 157 158 160 163 167 169 169 172 174 176 178 179 179 181 185 187 186 188 187 187
237 237 211 179 134 92 56 5 338 358 40 59 72 93 81 55 51 79 108 132 143 146 148 146 152 155 157 156 156 157 158 157 160 165 168 173 178 180 182 183 185 187 188 190 193 194 195 196 197
228 234 213 167 128 114 74 8 340 354 55 65 55 80 74 68 67 86 109 130 137 141 146 141 150 154 157 159 159 161 163 162 163 164 167 171 176 182 186 189 192 196 195 195 199 201 204 205 205
256 231 200 155 130 119 51 14 2 1 34 41 6 45 96 73 76 100 113 122 129 137 140 147 156 160 162 159 157 162 164 164 166 167 170 174 179 184 189 195 200 203 203 202 206 207 211 212 210
272 244 189 161 160 80 61 53 31 3 39 43 7 6 81 92 104 117 117 116 120 133 142 150 158 163 167 163 158 161 163 163 169 172 178 184 186 191 197 201 199 208 211 212 215 215 214 217 216
251 236 177 104 1 47 57 67 57 52 70 65 45 38 59 114 133 132 128 122 120 127 148 155 165 165 173 168 160 168 171 171 179 179 181 197 204 201 200 204 198 215 220 223 222 218 218 218 212
247 241 75 39 5 24 54 48 54 89 90 68 63 60 91 138 147 146 137 135 131 128 152 161 179 173 178 176 166 181 186 179 192 189 195 207 213 219 219 169 196 221 227 228 226 221 220 226 218
242 281 56 52 30 13 69 62 54 9 7 360 359 108 130 150 148 144 132 124 125 136 153 178 194 193 189 177 177 187 196 186 193 191 203 214 222 217 219 204 194 212 222 227 213 216 221 221 223
198 218 288 71 43 52 81 93 81 36 16 24 48 100 130 137 133 123 113 112 120 138 180 249 232 188 188 182 179 204 207 201 201 187 210 215 223 230 224 226 225 221 220 226 230 223 219 222 229
201 177 131 141 113 113 131 108 96 63 43 54 71 95 118 116 107 99 90 69 49 348 261 249 209 176 169 177 217 208 226 222 202 203 207 231 239 238 234 234 237 240 230 220 228 231 222 227 226
174 177 186 208 180 148 136 103 88 60 72 86 82 90 97 101 91 82 83 55 324 269 248 225 203 188 184 194 206 215 223 224 222 210 214 233 244 249 250 243 241 245 244 240 237 233 226 224 225
188 189 189 189 187 178 185 111 68 84 108 105 89 85 80 76 73 63 60 359 291 254 232 224 204 190 196 208 219 220 223 229 227 210 215 230 241 244 249 253 248 251 252 243 238 234 226 223 220
209 216 211 173 195 198 238 245 85 99 133 118 105 93 86 71 54 41 38 333 289 265 232 231 223 202 198 203 226 231 233 238 239 227 221 235 246 250 254 259 258 254 249 246 241 235 232 229 227
213 231 228 174 188 202 232 228 105 119 130 125 117 106 92 72 47 26 6 356 329 293 259 242 236 227 224 216 223 230 229 238 241 241 243 250 251 250 252 258 256 251 249 247 248 238 237 232 232
243 247 238 222 179 217 223 194 133 154 157 136 117 102 82 53 29 12 358 347 333 309 281 260 242 233 239 234 229 234 231 235 242 250 246 249 251 253 252 248 242 244 248 248 245 245 241 241 231
259 253 241 219 192 221 207 194 162 168 187 158 104 86 56 38 23 7 356 351 340 323 311 301 275 220 232 238 248 250 252 254 255 254 245 247 255 255 251 257 243 240 240 247 248 248 241 237 233
244 242 227 190 175 227 206 216 189 170 164 112 79 67 38 28 24 8 354 352 350 338 324 305 299 247 241 239 252 257 272 268 263 262 248 240 238 247 246 249 251 243 238 237 242 243 249 238 227
238 247 235 217 198 212 219 214 185 168 163 146 345 9 41 18 360 348 341 340 340 339 334 320 310 290 265 248 244 255 258 260 261 259 253 247 240 243 250 251 252 247 243 235 233 235 241 243 236
247 246 237 216 221 228 232 260 180 180 177 203 304 334 1 355 344 333 335 342 343 336 335 327 320 309 286 267 256 259 261 267 272 269 263 256 249 252 252 248 247 249 247 236 236 229 234 239 242
264 226 229 231 239 248 226 257 195 171 220 261 325 337 340 338 336 335 344 346 348 344 348 348 344 326 303 280 266 259 269 279 278 275 263 264 257 251 252 251 249 247 244 240 242 240 237 238 244
179 201 213 225 234 242 236 255 239 165 310 330 350 359 349 344 337 345 355 355 353 351 353 350 356 337 313 289 286 280 285 291 294 290 277 266 262 256 256 251 251 248 245 241 241 242 238 241 244
216 237 235 225 227 235 166 248 302 81 35 347 346 353 358 358 357 352 354 352 351 355 357 360 4 338 322 314 308 296 289 282 286 291 280 278 274 267 261 265 256 252 248 247 249 244 245 244 242
224 254 277 281 280 262 202 241 109 112 77 27 7 3 12 8 9 359 0 350 348 356 357 2 4 345 342 340 331 319 295 292 302 309 299 284 289 291 281 270 271 264 253 247 244 247 243 243 245
230 246 289 278 272 262 218 197 173 158 120 6 7 357 354 358 1 2 8 356 350 357 2 4 2 346 344 344 336 329 336 324 323 312 296 306 314 296 285 279 281 275 262 253 248 247 247 245 243
283 261 253 266 281 275 246 236 226 185 310 335 338 330 334 349 357 9 14 3 1 9 16 10 1 0 355 341 342 6 360 346 339 333 348 339 321 305 283 287 291 283 272 260 258 251 245 243 244
208 223 255 267 281 283 281 318 63 81 14 338 340 322 325 348 2 15 21 24 27 26 29 24 15 17 11 3 7 13 7 359 350 353 357 353 337 316 288 281 279 281 273 265 259 262 252 243 242
254 256 246 260 257 262 281 326 100 90 39 349 348 343 345 355 9 22 30 35 32 27 25 25 17 17 15 14 14 14 12 7 351 352 349 349 334 303 283 282 283 290 283 272 261 262 256 250 245
Height
1509 1509 1510 1512 1505 1496 1497 1496 1495 1496 1497 1499 1500 1498 1498 1499 1501 1508 1510 1508 1509 1509 1509 1510 1511 1513 1515 1516 1518 1519 1520 1522 1523 1524 1525 1526 1527 1528 1529 1530 1532 1533 1534 1535 1536 1537 1539 1540 1541
1510 1510 1512 1509 1497 1499 1499 1495 1497 1498 1501 1501 1501 1501 1500 1503 1507 1509 1509 1508 1509 1510 1510 1511 1512 1514 1515 1517 1518 1519 1521 1522 1523 1524 1525 1526 1527 1528 1529 1530 1531 1533 1534 1535 1536 1537 1539 1540 1541
1510 1511 1511 1500 1496 1497 1499 1496 1498 1501 1502 1502 1502 1503 1504 1507 1509 1510 1510 1509 1509 1510 1511 1511 1513 1514 1516 1517 1518 1520 1521 1522 1523 1524 1525 1526 1527 1528 1529 1530 1531 1532 1533 1535 1535 1537 1538 1539 1540
1512 1512 1508 1499 1498 1496 1497 1498 1500 1500 1501 1502 1502 1504 1507 1510 1510 1511 1509 1509 1510 1511 1512 1512 1513 1515 1516 1517 1519 1520 1521 1522 1523 1524 1525 1526 1527 1528 1529 1530 1531 1531 1533 1534 1535 1536 1537 1538 1539
1512 1508 1500 1498 1497 1497 1498 1501 1501 1500 1501 1503 1503 1504 1508 1511 1510 1510 1510 1511 1512 1513 1514 1513 1514 1515 1516 1517 1519 1520 1521 1522 1523 1524 1525 1526 1527 1527 1528 1529 1530 1531 1532 1533 1534 1535 1536 1537 1538
1510 1502 1498 1499 1498 1498 1499 1502 1502 1501 1501 1503 1504 1504 1509 1512 1511 1511 1511 1512 1512 1513 1514 1514 1514 1515 1516 1517 1519 1520 1521 1522 1523 1524 1525 1526 1526 1527 1528 1528 1529 1530 1531 1532 1533 1534 1535 1536 1536
1507 1498 1497 1497 1499 1498 1501 1503 1502 1501 1502 1504 1505 1505 1510 1512 1512 1511 1512 1512 1513 1514 1514 1515 1515 1515 1516 1517 1519 1520 1521 1522 1523 1524 1524 1525 1525 1526 1527 1527 1528 1529 1529 1530 1531 1532 1534 1534 1535
1507 1499 1496 1496 1499 1499 1501 1503 1504 1504 1504 1507 1508 1506 1510 1513 1512 1512 1512 1512 1513 1513 1514 1515 1516 1516 1517 1517 1518 1519 1520 1521 1522 1523 1523 1524 1524 1525 1525 1526 1527 1527 1528 1529 1529 1530 1532 1532 1533
1507 1499 1497 1497 1499 1499 1501 1503 1505 1507 1507 1508 1509 1510 1511 1512 1511 1511 1512 1512 1512 1513 1514 1515 1515 1516 1517 1518 1518 1519 1520 1520 1521 1522 1522 1523 1524 1525 1525 1525 1525 1525 1526 1527 1527 1528 1529 1529 1531
1503 1497 1497 1498 1499 1499 1502 1503 1505 1506 1506 1508 1510 1511 1511 1511 1511 1511 1512 1512 1512 1513 1513 1513 1515 1515 1516 1517 1517 1518 1519 1520 1520 1521 1521 1522 1523 1523 1524 1523 1523 1524 1524 1524 1525 1526 1527 1528 1530
1501 1498 1499 1501 1503 1503 1503 1505 1506 1505 1505 1508 1509 1510 1511 1511 1511 1512 1512 1513 1513 1513 1513 1513 1514 1513 1514 1515 1517 1518 1518 1519 1519 1519 1520 1521 1522 1522 1522 1522 1522 1522 1522 1522 1522 1523 1525 1526 1527
1502 1502 1502 1503 1505 1504 1504 1506 1507 1508 1509 1510 1510 1510 1511 1511 1511 1512 1512 1513 1513 1513 1512 1512 1512 1512 1513 1514 1515 1516 1517 1517 1518 1518 1518 1519 1520 1520 1520 1520 1521 1520 1520 1520 1521 1521 1522 1523 1524
1502 1503 1504 1505 1505 1505 1505 1506 1507 1509 1510 1510 1510 1510 1511 1511 1511 1512 1512 1513 1513 1512 1511 1511 1510 1510 1511 1512 1513 1515 1515 1516 1516 1516 1517 1517 1518 1518 1518 1518 1518 1518 1519 1518 1518 1519 1520 1521 1521
1501 1503 1504 1504 1504 1505 1505 1506 1507 1510 1510 1510 1511 1511 1510 1511 1512 1512 1512 1512 1512 1511 1511 1510 1510 1510 1511 1511 1512 1513 1514 1514 1515 1515 1515 1515 1516 1516 1516 1515 1515 1516 1516 1516 1516 1517 1517 1517 1518
1503 1502 1502 1502 1503 1503 1504 1505 1506 1510 1510 1510 1511 1511 1512 1512 1512 1512 1512 1511 1511 1510 1510 1510 1509 1510 1510 1510 1511 1512 1512 1512 1513 1513 1512 1513 1513 1514 1514 1513 1513 1513 1514 1514 1514 1514 1514 1515 1516
1498 1497 1498 1500 1501 1502 1503 1505 1506 1509 1509 1510 1511 1512 1512 1513 1512 1512 1511 1511 1510 1509 1509 1509 1509 1509 1509 1509 1509 1510 1510 1510 1510 1510 1510 1510 1511 1511 1511 1511 1511 1511 1511 1511 1511 1511 1512 1512 1513
1493 1495 1495 1497 1498 1499 1499 1502 1506 1509 1509 1509 1510 1512 1512 1513 1512 1512 1511 1509 1508 1508 1507 1507 1507 1507 1507 1507 1507 1507 1507 1507 1508 1508 1508 1508 1508 1508 1508 1508 1508 1508 1508 1509 1509 1509 1509 1509 1510
1494 1492 1493 1495 1496 1498 1499 1502 1506 1508 1508 1509 1510 1511 1512 1512 1512 1511 1510 1508 1507 1506 1506 1505 1504 1504 1505 1505 1505 1505 1505 1505 1505 1505 1505 1505 1505 1505 1505 1505 1505 1505 1505 1505 1506 1506 1506 1506 1507
1490 1492 1494 1495 1496 1497 1499 1501 1504 1507 1507 1508 1509 1511 1511 1512 1512 1510 1509 1507 1506 1505 1504 1503 1503 1502 1502 1502 1503 1503 1503 1503 1503 1503 1502 1502 1501 1501 1501 1502 1501 1501 1502 1502 1503 1503 1503 1504 1504
1491 1492 1494 1495 1497 1498 1499 1501 1502 1505 1506 1508 1509 1510 1510 1511 1510 1509 1508 1506 1505 1504 1503 1502 1501 1500 1501 1501 1501 1501 1501 1501 1500 1500 1499 1499 1498 1499 1499 1498 1499 1499 1499 1499 1499 1500 1500 1501 1502
1490 1490 1491 1495 1497 1497 1498 1500 1500 1503 1506 1508 1508 1509 1509 1509 1509 1508 1507 1505 1504 1503 1501 1500 1499 1499 1499 1499 1499 1498 1498 1498 1498 1497 1496 1495 1495 1495 1495 1495 1495 1495 1496 1496 1495 1496 1497 1498 1499
1491 1487 1490 1493 1496 1494 1496 1499 1496 1498 1502 1505 1506 1507 1507 1508 1508 1507 1506 1505 1503 1502 1500 1499 1497 1497 1497 1496 1496 1496 1495 1495 1494 1494 1493 1492 1492 1492 1492 1492 1492 1492 1493 1492 1493 1493 1494 1494 1495
1489 1488 1489 1491 1491 1493 1493 1497 1493 1496 1500 1502 1504 1505 1506 1507 1507 1506 1505 1504 1502 1501 1499 1497 1496 1495 1495 1494 1493 1493 1493 1492 1492 1491 1490 1489 1489 1489 1489 1489 1489 1489 1489 1489 1489 1489 1490 1491 1492
1489 1490 1490 1489 1487 1497 1492 1497 1495 1494 1499 1500 1503 1505 1506 1506 1506 1505 1504 1503 1501 1499 1498 1496 1494 1493 1492 1492 1491 1490 1490 1490 1489 1489 1488 1487 1487 1486 1486 1486 1485 1485 1486 1485 1486 1486 1487 1487 1488
1489 1491 1494 1494 1493 1493 1492 1495 1496 1496 1499 1501 1502 1504 1505 1505 1504 1504 1503 1501 1500 1498 1496 1494 1493 1492 1491 1490 1489 1488 1488 1487 1487 1486 1486 1485 1484 1484 1483 1484 1483 1483 1482 1482 1482 1483 1483 1484 1484
1487 1488 1496 1501 1496 1490 1492 1494 1493 1497 1500 1502 1503 1503 1503 1503 1503 1503 1502 1500 1499 1497 1495 1494 1492 1491 1490 1489 1487 1487 1486 1486 1485 1484 1484 1483 1482 1482 1481 1480 1480 1479 1479 1480 1479 1480 1480 1480 1481
1486 1485 1483 1488 1489 1492 1488 1491 1493 1496 1499 1500 1501 1502 1502 1503 1502 1502 1501 1499 1498 1496 1495 1493 1492 1490 1489 1488 1487 1485 1485 1484 1484 1483 1482 1481 1480 1479 1479 1478 1477 1477 1476 1476 1476 1477 1477 1477 1477
1484 1484 1487 1488 1498 1497 1491 1490 1490 1494 1496 1498 1500 1501 1501 1502 1502 1501 1500 1499 1497 1496 1494 1493 1491 1489 1488 1487 1486 1485 1484 1483 1483 1482 1480 1479 1478 1477 1477 1476 1475 1474 1474 1473 1473 1474 1474 1474 1474
1487 1487 1487 1485 1488 1496 1497 1494 1488 1493 1496 1497 1498 1500 1501 1501 1501 1500 1499 1498 1497 1495 1494 1492 1491 1490 1489 1487 1486 1484 1484 1483 1482 1481 1479 1478 1477 1476 1475 1474 1473 1472 1471 1471 1471 1471 1470 1470 1470
1484 1484 1486 1493 1493 1491 1492 1495 1491 1494 1497 1498 1499 1500 1500 1500 1500 1499 1498 1498 1497 1495 1494 1493 1491 1490 1489 1487 1486 1485 1484 1483 1482 1480 1479 1477 1476 1475 1474 1473 1472 1471 1469 1468 1468 1468 1467 1467 1467